Date String (YYYY-MM-DD hh:mm:ss) UTC,Instrument flags,Ambient pressure (hPa),Sample flow (lpm),Bypass flow (lpm),Sample temperature (°C),Ambient temperature (°C),ASC tube jacket temperature (°C),LED temperature (°C),Box temperature (°C),Sample RH (%),Span deviation,Mass concentration (μg/m³),Mass concentration (μg/m³),Mass concentration (μg/m³)
DateTimeUTC,F1_M11,P_M11,Q1_M11,Q2_M11,T1_M11,T2_M11,T3_M11,T4_M11,T5_M11,U1_M11,ZSPAN_M11,X2_M11,X0_M11,X1_M11
2023-02-19 08:00:00,,0818.6,5.03,0.00,22.3,22.2,00.0,31.0,24.2,05.9,0000.0,0002.69,0005.43,0001.54
2023-02-19 08:01:00,,0818.7,5.02,0.00,22.3,21.7,00.0,31.0,24.1,06.0,0000.0,0002.68,0005.49,0001.54
2023-02-19 08:02:00,,0818.6,5.00,0.00,22.2,21.3,00.0,31.1,23.9,05.8,0000.0,0002.59,0005.39,0001.52
2023-02-19 08:03:00,,0818.6,4.97,0.00,22.2,20.9,00.0,31.1,23.8,05.8,0000.0,0002.55,0005.27,0001.52
2023-02-19 08:04:00,,0818.6,5.01,0.00,22.2,20.7,00.0,31.1,23.8,05.7,0000.0,0002.49,0005.08,0001.51
2023-02-19 08:05:00,,0818.6,5.02,0.00,22.1,20.5,00.0,31.1,23.8,05.9,0000.0,0002.47,0005.31,0001.52
2023-02-19 08:06:00,,0818.7,5.00,0.00,22.1,20.3,00.0,31.1,23.7,06.0,0000.0,0002.44,0005.24,0001.52
2023-02-19 08:07:00,,0818.7,4.99,0.00,22.1,20.2,00.0,31.0,23.7,06.0,0000.0,0002.41,0005.13,0001.53
2023-02-19 08:08:00,,0818.7,5.00,0.00,22.0,20.2,00.0,31.0,23.7,06.0,0000.0,0002.36,0005.22,0001.54
2023-02-19 08:09:00,,0818.6,4.99,0.00,22.0,20.2,00.0,31.0,23.7,05.7,0000.0,0002.38,0006.22,0001.55
2023-02-19 08:10:00,,0818.5,5.01,0.00,22.0,20.1,00.0,31.0,23.6,05.7,0000.0,0002.33,0005.86,0001.54
2023-02-19 08:11:00,,0818.5,4.99,0.00,22.0,20.1,00.0,31.0,23.6,05.8,0000.0,0002.32,0005.93,0001.55
2023-02-19 08:12:00,,0818.5,4.98,0.00,22.0,20.1,00.0,31.0,23.6,05.9,0000.0,0002.35,0006.09,0001.54
2023-02-19 08:13:00,,0818.6,5.00,0.00,21.9,20.0,00.0,31.0,23.6,06.1,0000.0,0002.40,0006.22,0001.54
2023-02-19 08:14:00,,0818.7,4.99,0.00,21.9,19.9,00.0,30.9,23.5,06.1,0000.0,0002.46,0006.47,0001.55
2023-02-19 08:15:00,,0818.7,5.03,0.00,21.9,20.7,00.0,30.9,23.6,06.1,0000.0,0002.44,0007.33,0001.53
2023-02-19 08:16:00,,0818.7,4.99,0.00,22.0,22.1,00.0,30.8,24.0,05.9,0000.0,0002.39,0007.26,0001.51
2023-02-19 08:17:00,,0818.4,5.05,0.00,22.2,23.0,00.0,30.8,24.2,05.7,0000.0,0002.36,0007.10,0001.51
2023-02-19 08:18:00,,0818.5,4.99,0.00,22.3,22.8,00.0,30.9,24.3,05.6,0000.0,0002.39,0007.36,0001.51
2023-02-19 08:19:00,,0818.5,4.99,0.00,22.3,22.3,00.0,31.0,24.2,05.6,0000.0,0002.39,0007.32,0001.51
2023-02-19 08:20:00,,0818.5,5.01,0.00,22.3,21.9,00.0,31.0,24.1,05.6,0000.0,0002.32,0006.13,0001.49
2023-02-19 08:21:00,,0818.4,5.00,0.00,22.3,21.5,00.0,31.1,24.1,05.8,0000.0,0002.32,0006.08,0001.50
2023-02-19 08:22:00,,0818.4,4.97,0.00,22.3,21.2,00.0,31.1,24.0,05.8,0000.0,0002.32,0005.98,0001.49
2023-02-19 08:23:00,,0818.4,5.03,0.00,22.3,21.0,00.0,31.1,24.0,05.8,0000.0,0002.27,0005.79,0001.49
2023-02-19 08:24:00,,0818.5,5.00,0.00,22.2,20.8,00.0,31.1,24.0,05.8,0000.0,0002.26,0005.57,0001.50
2023-02-19 08:25:00,,0818.6,5.00,0.00,22.2,20.7,00.0,31.1,23.9,05.9,0000.0,0002.25,0005.48,0001.49
2023-02-19 08:26:00,,0818.7,5.01,0.00,22.2,20.6,00.0,31.1,23.9,05.9,0000.0,0002.41,0004.84,0001.51
2023-02-19 08:27:00,,0818.6,5.00,0.00,22.2,20.5,00.0,31.1,23.9,05.9,0000.0,0002.50,0005.22,0001.53
2023-02-19 08:28:00,,0818.7,5.01,0.00,22.2,20.5,00.0,31.1,23.9,06.0,0000.0,0002.56,0005.96,0001.55
2023-02-19 08:29:00,,0818.7,5.02,0.00,22.1,20.5,00.0,31.1,23.9,06.0,0000.0,0002.56,0005.82,0001.55
2023-02-19 08:30:00,,0818.7,4.98,0.00,22.1,20.4,00.0,31.1,23.8,06.0,0000.0,0002.51,0005.63,0001.54
2023-02-19 08:31:00,,0818.6,4.99,0.00,22.1,20.4,00.0,31.0,23.8,06.1,0000.0,0002.57,0005.87,0001.56
2023-02-19 08:32:00,,0818.5,4.95,0.00,22.1,20.4,00.0,31.0,23.8,06.1,0000.0,0002.59,0006.07,0001.58
2023-02-19 08:33:00,,0818.6,4.99,0.00,22.1,20.3,00.0,31.0,23.8,06.2,0000.0,0002.57,0006.31,0001.58
2023-02-19 08:34:00,,0818.7,4.99,0.00,22.1,20.3,00.0,31.0,23.8,06.1,0000.0,0002.63,0006.56,0001.60
2023-02-19 08:35:00,,0818.8,4.99,0.00,22.1,20.3,00.0,31.0,23.8,06.1,0000.0,0002.64,0006.55,0001.61
2023-02-19 08:36:00,,0818.7,4.99,0.00,22.1,20.3,00.0,31.0,23.8,06.1,0000.0,0002.63,0006.55,0001.62
2023-02-19 08:37:00,,0818.4,4.97,0.00,22.0,20.3,00.0,31.0,23.7,06.0,0000.0,0002.60,0006.58,0001.63
2023-02-19 08:38:00,,0818.4,5.00,0.00,22.0,20.2,00.0,31.0,23.7,05.9,0000.0,0002.53,0006.73,0001.63
2023-02-19 08:39:00,,0818.5,5.00,0.00,22.0,20.8,00.0,30.9,23.9,05.9,0000.0,0002.50,0006.33,0001.63
2023-02-19 08:40:00,,0818.9,5.00,0.00,22.2,22.1,00.0,30.9,24.1,06.1,0000.0,0002.53,0006.06,0001.64
2023-02-19 08:41:00,,0818.9,4.97,0.00,22.3,23.1,00.0,30.9,24.4,06.0,0000.0,0002.59,0006.49,0001.66
2023-02-19 08:42:00,,0818.7,4.99,0.00,22.4,22.8,00.0,31.0,24.4,05.8,0000.0,0002.64,0007.32,0001.67
2023-02-19 08:43:00,,0818.7,5.00,0.00,22.4,22.3,00.0,31.0,24.3,05.8,0000.0,0002.72,0007.44,0001.67
2023-02-19 08:44:00,,0818.5,5.01,0.00,22.4,21.8,00.0,31.1,24.2,05.7,0000.0,0002.72,0007.29,0001.67
2023-02-19 08:45:00,,0818.6,5.01,0.00,22.4,21.4,00.0,31.1,24.1,05.7,0000.0,0002.71,0007.10,0001.68
2023-02-19 08:46:00,,0818.7,4.99,0.00,22.3,21.1,00.0,31.1,24.1,05.7,0000.0,0002.75,0007.23,0001.68
2023-02-19 08:47:00,,0818.7,5.00,0.00,22.3,20.9,00.0,31.1,24.0,06.0,0000.0,0002.81,0007.41,0001.70
2023-02-19 08:48:00,,0818.7,5.00,0.00,22.3,20.7,00.0,31.1,24.0,05.9,0000.0,0002.78,0007.33,0001.70
2023-02-19 08:49:00,,0818.7,4.99,0.00,22.2,20.5,00.0,31.1,23.9,05.9,0000.0,0002.76,0006.80,0001.70
2023-02-19 08:50:00,,0818.7,5.00,0.00,22.2,20.4,00.0,31.1,23.8,06.1,0000.0,0002.71,0006.45,0001.71
2023-02-19 08:51:00,,0818.6,5.00,0.00,22.1,20.2,00.0,31.1,23.7,06.1,0000.0,0002.72,0006.72,0001.70
2023-02-19 08:52:00,,0818.6,5.00,0.00,22.1,20.1,00.0,31.1,23.6,05.9,0000.0,0002.69,0006.42,0001.70
2023-02-19 08:53:00,,0818.8,5.00,0.00,22.0,19.9,00.0,31.1,23.4,05.8,0000.0,0002.65,0005.40,0001.68
2023-02-19 08:54:00,,0818.7,5.01,0.00,21.9,19.8,00.0,31.0,23.3,05.9,0000.0,0002.67,0005.43,0001.68
2023-02-19 08:55:00,,0818.8,5.00,0.00,21.8,19.7,00.0,31.0,23.3,06.1,0000.0,0002.77,0005.83,0001.67
2023-02-19 08:56:00,,0818.7,5.01,0.00,21.8,20.3,00.0,30.9,23.4,06.3,0000.0,0002.73,0005.82,0001.66
2023-02-19 08:57:00,,0818.6,4.95,0.00,21.9,21.6,00.0,30.8,23.8,06.1,0000.0,0002.68,0005.62,0001.66
2023-02-19 08:58:00,,0818.8,4.95,0.00,22.1,22.7,00.0,30.8,24.1,05.9,0000.0,0002.66,0005.53,0001.65
2023-02-19 08:59:00,,0818.9,5.00,0.00,22.2,22.5,00.0,30.9,24.1,05.9,0000.0,0002.69,0005.47,0001.65
